Time,TemperatureF,DewpointF,PressureIn,WindDirection,WindDirectionDegrees,WindSpeedMPH,WindSpeedGustMPH,Humidity,HourlyPrecipIn,Conditions,Clouds,dailyrainin,SoftwareType,DateUTC
2013-01-31 00:00:00,51.0,51.0,29.46,South,180,12.0,24.0,100,0.02,,,0.00,Weather View 32 v70,2013-01-31 05:00:00,
2013-01-31 00:02:00,51.0,51.0,29.46,South,180,11.0,24.0,100,0.01,,,0.00,Weather View 32 v70,2013-01-31 05:02:00,
2013-01-31 00:03:00,51.0,51.0,29.46,WSW,248,13.0,24.0,100,0.01,,,0.00,Weather View 32 v70,2013-01-31 05:03:00,
2013-01-31 00:08:00,51.0,51.0,29.46,South,180,5.0,23.0,100,0.01,,,0.00,Weather View 32 v70,2013-01-31 05:08:00,
2013-01-31 00:13:00,51.0,51.0,29.46,WSW,248,6.0,23.0,100,0.01,,,0.00,Weather View 32 v70,2013-01-31 05:13:00,
2013-01-31 00:18:00,51.0,51.0,29.46,WSW,248,11.0,23.0,100,0.01,,,0.00,Weather View 32 v70,2013-01-31 05:18:00,
2013-01-31 00:23:00,51.0,51.0,29.46,South,180,9.0,23.0,100,0.01,,,0.00,Weather View 32 v70,2013-01-31 05:23:00,
2013-01-31 00:28:00,51.0,51.0,29.46,South,180,9.0,23.0,100,0.01,,,0.00,Weather View 32 v70,2013-01-31 05:28:00,
2013-01-31 00:33:00,51.0,51.0,29.46,South,180,11.0,23.0,100,0.00,,,0.00,Weather View 32 v70,2013-01-31 05:33:00,
2013-01-31 00:38:00,51.0,51.0,29.45,South,180,7.0,24.0,100,0.00,,,0.00,Weather View 32 v70,2013-01-31 05:38:00,
2013-01-31 00:43:00,51.0,51.0,29.46,East,90,14.0,24.0,100,0.00,,,0.00,Weather View 32 v70,2013-01-31 05:43:00,
2013-01-31 00:48:00,51.0,51.0,29.46,South,180,14.0,29.0,100,0.00,,,0.00,Weather View 32 v70,2013-01-31 05:48:00,
2013-01-31 00:53:00,50.0,50.0,29.46,South,180,8.0,29.0,100,0.00,,,0.00,Weather View 32 v70,2013-01-31 05:53:00,
2013-01-31 00:58:00,50.0,50.0,29.45,South,180,7.0,29.0,100,0.00,,,0.00,Weather View 32 v70,2013-01-31 05:58:00,
2013-01-31 01:03:00,50.0,50.0,29.45,South,180,8.0,29.0,100,0.00,,,0.00,Weather View 32 v70,2013-01-31 06:03:00,
2013-01-31 01:08:00,50.0,50.0,29.46,WSW,248,18.0,29.0,100,0.00,,,0.00,Weather View 32 v70,2013-01-31 06:08:00,
2013-01-31 01:13:00,50.0,50.0,29.46,WSW,248,9.0,29.0,100,0.00,,,0.00,Weather View 32 v70,2013-01-31 06:13:00,
2013-01-31 01:18:00,50.0,50.0,29.46,South,180,18.0,29.0,100,0.00,,,0.00,Weather View 32 v70,2013-01-31 06:18:00,
2013-01-31 01:23:00,50.0,50.0,29.46,South,180,10.0,29.0,100,0.00,,,0.00,Weather View 32 v70,2013-01-31 06:23:00,
2013-01-31 01:28:00,50.0,50.0,29.46,South,180,8.0,29.0,100,0.00,,,0.00,Weather View 32 v70,2013-01-31 06:28:00,
2013-01-31 01:33:00,50.0,50.0,29.46,South,180,18.0,29.0,100,0.00,,,0.00,Weather View 32 v70,2013-01-31 06:33:00,
2013-01-31 01:38:00,50.0,50.0,29.46,West,270,14.0,29.0,100,0.00,,,0.00,Weather View 32 v70,2013-01-31 06:38:00,
2013-01-31 01:44:00,50.0,50.0,29.46,WSW,248,10.0,31.0,100,0.00,,,0.00,Weather View 32 v70,2013-01-31 06:44:00,
2013-01-31 01:49:00,50.0,50.0,29.45,WSW,248,8.0,31.0,100,0.00,,,0.00,Weather View 32 v70,2013-01-31 06:49:00,
2013-01-31 01:54:00,50.0,50.0,29.47,WSW,248,14.0,31.0,100,0.00,,,0.00,Weather View 32 v70,2013-01-31 06:54:00,
2013-01-31 01:59:00,50.0,50.0,29.46,West,270,8.0,31.0,100,0.00,,,0.00,Weather View 32 v70,2013-01-31 06:59:00,
2013-01-31 02:04:00,50.0,50.0,29.47,WSW,248,11.0,31.0,100,0.00,,,0.00,Weather View 32 v70,2013-01-31 07:04:00,
2013-01-31 02:09:00,50.0,50.0,29.47,South,180,7.0,31.0,100,0.00,,,0.00,Weather View 32 v70,2013-01-31 07:09:00,
2013-01-31 02:14:00,50.0,50.0,29.47,West,270,16.0,31.0,100,0.00,,,0.00,Weather View 32 v70,2013-01-31 07:14:00,
2013-01-31 02:19:00,50.0,50.0,29.48,West,270,14.0,31.0,100,0.00,,,0.00,Weather View 32 v70,2013-01-31 07:19:00,
2013-01-31 02:24:00,50.0,50.0,29.48,South,180,11.0,31.0,100,0.00,,,0.00,Weather View 32 v70,2013-01-31 07:24:00,
2013-01-31 02:29:00,50.0,50.0,29.49,West,270,14.0,31.0,100,0.00,,,0.00,Weather View 32 v70,2013-01-31 07:29:00,
2013-01-31 02:34:00,50.0,49.7,29.49,South,180,10.0,31.0,99,0.00,,,0.00,Weather View 32 v70,2013-01-31 07:34:00,
2013-01-31 02:39:00,50.0,49.7,29.49,West,270,5.0,31.0,99,0.00,,,0.00,Weather View 32 v70,2013-01-31 07:39:00,
2013-01-31 02:44:00,50.0,49.5,29.49,South,180,13.0,29.0,98,0.00,,,0.00,Weather View 32 v70,2013-01-31 07:44:00,
2013-01-31 02:49:00,50.0,49.5,29.50,WSW,248,28.0,29.0,98,0.00,,,0.00,Weather View 32 v70,2013-01-31 07:49:00,
2013-01-31 02:54:00,50.0,49.2,29.50,South,180,6.0,29.0,97,0.00,,,0.00,Weather View 32 v70,2013-01-31 07:54:00,
2013-01-31 02:59:00,50.0,48.9,29.50,WSW,248,18.0,32.0,96,0.00,,,0.00,Weather View 32 v70,2013-01-31 07:59:00,
2013-01-31 03:04:00,50.0,48.6,29.50,WSW,248,14.0,33.0,95,0.00,,,0.00,Weather View 32 v70,2013-01-31 08:04:00,
2013-01-31 03:09:00,50.0,48.6,29.50,WSW,248,21.0,33.0,95,0.00,,,0.00,Weather View 32 v70,2013-01-31 08:09:00,
2013-01-31 03:14:00,49.0,47.3,29.51,WSW,248,6.0,33.0,94,0.00,,,0.00,Weather View 32 v70,2013-01-31 08:14:00,
2013-01-31 03:19:00,49.0,47.3,29.51,South,180,20.0,33.0,94,0.00,,,0.00,Weather View 32 v70,2013-01-31 08:19:00,
2013-01-31 03:24:00,49.0,47.3,29.51,WSW,248,18.0,33.0,94,0.00,,,0.00,Weather View 32 v70,2013-01-31 08:24:00,
2013-01-31 03:29:00,49.0,47.1,29.52,NNW,338,5.0,33.0,93,0.00,,,0.00,Weather View 32 v70,2013-01-31 08:29:00,
2013-01-31 03:34:00,48.0,46.1,29.52,WSW,248,18.0,33.0,93,0.00,,,0.00,Weather View 32 v70,2013-01-31 08:34:00,
2013-01-31 03:39:00,48.0,45.8,29.53,WSW,248,16.0,33.0,92,0.00,,,0.00,Weather View 32 v70,2013-01-31 08:39:00,
2013-01-31 03:44:00,48.0,45.8,29.53,WSW,248,8.0,33.0,92,0.00,,,0.00,Weather View 32 v70,2013-01-31 08:44:00,
2013-01-31 03:49:00,48.0,45.8,29.54,WSW,248,13.0,33.0,92,0.00,,,0.00,Weather View 32 v70,2013-01-31 08:49:00,
2013-01-31 03:54:00,48.0,45.5,29.54,South,180,9.0,33.0,91,0.00,,,0.00,Weather View 32 v70,2013-01-31 08:54:00,
2013-01-31 03:59:00,47.0,44.5,29.55,South,180,10.0,33.0,91,0.00,,,0.00,Weather View 32 v70,2013-01-31 08:59:00,
2013-01-31 04:04:00,47.0,44.2,29.55,WSW,248,12.0,33.0,90,0.00,,,0.00,Weather View 32 v70,2013-01-31 09:04:00,
2013-01-31 04:09:00,47.0,44.2,29.55,South,180,9.0,33.0,90,0.00,,,0.00,Weather View 32 v70,2013-01-31 09:09:00,
2013-01-31 04:14:00,47.0,43.9,29.56,WSW,248,6.0,33.0,89,0.00,,,0.00,Weather View 32 v70,2013-01-31 09:14:00,
2013-01-31 04:19:00,46.0,42.9,29.56,WSW,248,9.0,33.0,89,0.00,,,0.00,Weather View 32 v70,2013-01-31 09:19:00,
2013-01-31 04:24:00,46.0,42.9,29.56,South,180,11.0,33.0,89,0.00,,,0.00,Weather View 32 v70,2013-01-31 09:24:00,
2013-01-31 04:29:00,46.0,42.9,29.57,South,180,3.0,33.0,89,0.00,,,0.00,Weather View 32 v70,2013-01-31 09:29:00,
2013-01-31 04:34:00,46.0,42.9,29.57,South,180,8.0,33.0,89,0.00,,,0.00,Weather View 32 v70,2013-01-31 09:34:00,
2013-01-31 04:39:00,46.0,42.9,29.58,WSW,248,12.0,33.0,89,0.00,,,0.00,Weather View 32 v70,2013-01-31 09:39:00,
2013-01-31 04:44:00,46.0,42.6,29.58,South,180,6.0,33.0,88,0.00,,,0.00,Weather View 32 v70,2013-01-31 09:44:00,
2013-01-31 04:49:00,45.0,41.7,29.59,WSW,248,11.0,33.0,88,0.00,,,0.00,Weather View 32 v70,2013-01-31 09:49:00,
2013-01-31 04:54:00,45.0,41.7,29.59,South,180,13.0,33.0,88,0.00,,,0.00,Weather View 32 v70,2013-01-31 09:54:00,
2013-01-31 04:59:00,45.0,41.7,29.59,West,270,11.0,33.0,88,0.00,,,0.00,Weather View 32 v70,2013-01-31 09:59:00,
2013-01-31 05:04:00,45.0,41.7,29.59,WSW,248,6.0,33.0,88,0.00,,,0.00,Weather View 32 v70,2013-01-31 10:04:00,
2013-01-31 05:09:00,45.0,41.7,29.60,West,270,6.0,27.0,88,0.00,,,0.00,Weather View 32 v70,2013-01-31 10:09:00,
2013-01-31 05:14:00,45.0,41.9,29.60,WSW,248,13.0,27.0,89,0.00,,,0.00,Weather View 32 v70,2013-01-31 10:14:00,
2013-01-31 05:19:00,45.0,41.7,29.61,WSW,248,11.0,27.0,88,0.00,,,0.00,Weather View 32 v70,2013-01-31 10:19:00,
2013-01-31 05:24:00,45.0,41.7,29.61,South,180,19.0,27.0,88,0.00,,,0.00,Weather View 32 v70,2013-01-31 10:24:00,
2013-01-31 05:29:00,45.0,41.7,29.62,WSW,248,8.0,27.0,88,0.00,,,0.00,Weather View 32 v70,2013-01-31 10:29:00,
2013-01-31 05:34:00,45.0,41.7,29.62,WSW,248,6.0,27.0,88,0.00,,,0.00,Weather View 32 v70,2013-01-31 10:34:00,
2013-01-31 05:39:00,45.0,41.7,29.62,West,270,9.0,27.0,88,0.00,,,0.00,Weather View 32 v70,2013-01-31 10:39:00,
2013-01-31 05:44:00,45.0,41.7,29.63,West,270,13.0,24.0,88,0.00,,,0.00,Weather View 32 v70,2013-01-31 10:44:00,
2013-01-31 05:49:00,45.0,41.4,29.63,WSW,248,6.0,24.0,87,0.00,,,0.00,Weather View 32 v70,2013-01-31 10:49:00,
2013-01-31 05:54:00,44.0,40.4,29.64,West,270,10.0,24.0,87,0.00,,,0.00,Weather View 32 v70,2013-01-31 10:54:00,
2013-01-31 05:59:00,44.0,40.4,29.64,WSW,248,9.0,24.0,87,0.00,,,0.00,Weather View 32 v70,2013-01-31 10:59:00,
2013-01-31 06:04:00,44.0,40.4,29.65,WSW,248,5.0,24.0,87,0.00,,,0.00,Weather View 32 v70,2013-01-31 11:04:00,
2013-01-31 06:09:00,44.0,40.1,29.65,West,270,8.0,24.0,86,0.00,,,0.00,Weather View 32 v70,2013-01-31 11:09:00,
2013-01-31 06:14:00,44.0,40.1,29.65,South,180,4.0,24.0,86,0.00,,,0.00,Weather View 32 v70,2013-01-31 11:14:00,
2013-01-31 06:19:00,44.0,40.1,29.66,WSW,248,10.0,24.0,86,0.00,,,0.00,Weather View 32 v70,2013-01-31 11:19:00,
2013-01-31 06:24:00,44.0,39.8,29.67,WSW,248,6.0,21.0,85,0.00,,,0.00,Weather View 32 v70,2013-01-31 11:24:00,
2013-01-31 06:29:00,44.0,39.5,29.67,West,270,12.0,21.0,84,0.00,,,0.00,Weather View 32 v70,2013-01-31 11:29:00,
2013-01-31 06:34:00,43.0,38.2,29.67,South,180,6.0,21.0,83,0.00,,,0.00,Weather View 32 v70,2013-01-31 11:34:00,
2013-01-31 06:39:00,43.0,36.9,29.68,WSW,248,4.0,23.0,79,0.00,,,0.00,Weather View 32 v70,2013-01-31 11:39:00,
2013-01-31 06:44:00,43.0,35.9,29.68,WSW,248,11.0,23.0,76,0.00,,,0.00,Weather View 32 v70,2013-01-31 11:44:00,
2013-01-31 06:49:00,43.0,35.3,29.68,WSW,248,4.0,23.0,74,0.00,,,0.00,Weather View 32 v70,2013-01-31 11:49:00,
2013-01-31 06:54:00,43.0,34.9,29.69,West,270,12.0,23.0,73,0.00,,,0.00,Weather View 32 v70,2013-01-31 11:54:00,
2013-01-31 06:59:00,43.0,34.6,29.70,West,270,8.0,23.0,72,0.00,,,0.00,Weather View 32 v70,2013-01-31 11:59:00,
2013-01-31 07:04:00,42.0,33.3,29.70,West,270,10.0,23.0,71,0.00,,,0.00,Weather View 32 v70,2013-01-31 12:04:00,
2013-01-31 07:09:00,42.0,33.3,29.70,West,270,8.0,23.0,71,0.00,,,0.00,Weather View 32 v70,2013-01-31 12:09:00,
2013-01-31 07:14:00,42.0,32.9,29.71,WSW,248,17.0,23.0,70,0.00,,,0.00,Weather View 32 v70,2013-01-31 12:14:00,
2013-01-31 07:19:00,42.0,32.9,29.72,West,270,8.0,23.0,70,0.00,,,0.00,Weather View 32 v70,2013-01-31 12:19:00,
2013-01-31 07:24:00,42.0,32.6,29.72,WSW,248,11.0,23.0,69,0.00,,,0.00,Weather View 32 v70,2013-01-31 12:24:00,
2013-01-31 07:29:00,42.0,32.2,29.73,West,270,11.0,23.0,68,0.00,,,0.00,Weather View 32 v70,2013-01-31 12:29:00,
2013-01-31 07:34:00,42.0,32.2,29.74,West,270,8.0,23.0,68,0.00,,,0.00,Weather View 32 v70,2013-01-31 12:34:00,
2013-01-31 07:39:00,42.0,31.8,29.74,WSW,248,9.0,23.0,67,0.00,,,0.00,Weather View 32 v70,2013-01-31 12:39:00,
2013-01-31 07:44:00,42.0,31.8,29.74,West,270,7.0,22.0,67,0.00,,,0.00,Weather View 32 v70,2013-01-31 12:44:00,
2013-01-31 07:49:00,42.0,31.8,29.74,West,270,10.0,22.0,67,0.00,,,0.00,Weather View 32 v70,2013-01-31 12:49:00,
2013-01-31 07:54:00,42.0,31.8,29.75,West,270,5.0,22.0,67,0.00,,,0.00,Weather View 32 v70,2013-01-31 12:54:00,
2013-01-31 07:59:00,42.0,31.8,29.76,WSW,248,2.0,22.0,67,0.00,,,0.00,Weather View 32 v70,2013-01-31 12:59:00,
2013-01-31 08:04:00,42.0,31.8,29.76,WSW,248,8.0,22.0,67,0.00,,,0.00,Weather View 32 v70,2013-01-31 13:04:00,
2013-01-31 08:09:00,42.0,31.8,29.77,West,270,7.0,21.0,67,0.00,,,0.00,Weather View 32 v70,2013-01-31 13:09:00,
2013-01-31 08:14:00,42.0,31.8,29.77,WSW,248,8.0,21.0,67,0.00,,,0.00,Weather View 32 v70,2013-01-31 13:14:00,
2013-01-31 08:19:00,42.0,32.2,29.77,West,270,8.0,21.0,68,0.00,,,0.00,Weather View 32 v70,2013-01-31 13:19:00,
2013-01-31 08:24:00,42.0,31.8,29.77,West,270,6.0,19.0,67,0.00,,,0.00,Weather View 32 v70,2013-01-31 13:24:00,
2013-01-31 08:29:00,42.0,31.8,29.78,West,270,13.0,19.0,67,0.00,,,0.00,Weather View 32 v70,2013-01-31 13:29:00,
2013-01-31 08:34:00,42.0,31.8,29.78,West,270,5.0,18.0,67,0.00,,,0.00,Weather View 32 v70,2013-01-31 13:34:00,
2013-01-31 08:39:00,42.0,31.5,29.79,West,270,6.0,18.0,66,0.00,,,0.00,Weather View 32 v70,2013-01-31 13:39:00,
2013-01-31 08:44:00,42.0,31.5,29.78,SSE,158,3.0,18.0,66,0.00,,,0.00,Weather View 32 v70,2013-01-31 13:44:00,
2013-01-31 08:49:00,42.0,31.1,29.79,West,270,8.0,18.0,65,0.00,,,0.00,Weather View 32 v70,2013-01-31 13:49:00,
2013-01-31 08:54:00,42.0,30.7,29.79,West,270,13.0,18.0,64,0.00,,,0.00,Weather View 32 v70,2013-01-31 13:54:00,
2013-01-31 08:59:00,42.0,30.7,29.80,West,270,6.0,21.0,64,0.00,,,0.00,Weather View 32 v70,2013-01-31 13:59:00,
2013-01-31 09:04:00,42.0,30.7,29.80,WSW,248,8.0,21.0,64,0.00,,,0.00,Weather View 32 v70,2013-01-31 14:04:00,
2013-01-31 09:09:00,43.0,31.2,29.80,South,180,3.0,21.0,63,0.00,,,0.00,Weather View 32 v70,2013-01-31 14:09:00,
2013-01-31 09:14:00,43.0,31.2,29.79,NNW,338,7.0,21.0,63,0.00,,,0.00,Weather View 32 v70,2013-01-31 14:14:00,
2013-01-31 09:19:00,43.0,30.9,29.80,WSW,248,6.0,21.0,62,0.00,,,0.00,Weather View 32 v70,2013-01-31 14:19:00,
2013-01-31 09:24:00,43.0,30.9,29.81,West,270,8.0,21.0,62,0.00,,,0.00,Weather View 32 v70,2013-01-31 14:24:00,
2013-01-31 09:30:00,43.0,30.5,29.80,WSW,248,11.0,21.0,61,0.00,,,0.00,Weather View 32 v70,2013-01-31 14:30:00,
2013-01-31 09:35:00,43.0,30.0,29.80,WSW,248,5.0,21.0,60,0.00,,,0.00,Weather View 32 v70,2013-01-31 14:35:00,
2013-01-31 09:40:00,43.0,29.6,29.80,South,180,5.0,21.0,59,0.00,,,0.00,Weather View 32 v70,2013-01-31 14:40:00,
2013-01-31 09:45:00,44.0,31.4,29.81,WSW,248,6.0,21.0,61,0.00,,,0.00,Weather View 32 v70,2013-01-31 14:45:00,
2013-01-31 09:50:00,44.0,31.4,29.81,WSW,248,5.0,21.0,61,0.00,,,0.00,Weather View 32 v70,2013-01-31 14:50:00,
2013-01-31 09:55:00,44.0,30.6,29.81,WSW,248,14.0,21.0,59,0.00,,,0.00,Weather View 32 v70,2013-01-31 14:55:00,
2013-01-31 10:00:00,44.0,30.2,29.81,West,270,16.0,21.0,58,0.00,,,0.00,Weather View 32 v70,2013-01-31 15:00:00,
2013-01-31 10:05:00,44.0,30.6,29.81,West,270,7.0,22.0,59,0.00,,,0.00,Weather View 32 v70,2013-01-31 15:05:00,
2013-01-31 10:10:00,44.0,30.2,29.82,South,180,10.0,22.0,58,0.00,,,0.00,Weather View 32 v70,2013-01-31 15:10:00,
2013-01-31 10:15:00,45.0,31.1,29.82,West,270,6.0,22.0,58,0.00,,,0.00,Weather View 32 v70,2013-01-31 15:15:00,
2013-01-31 10:20:00,45.0,31.5,29.82,West,270,7.0,22.0,59,0.00,,,0.00,Weather View 32 v70,2013-01-31 15:20:00,
2013-01-31 10:25:00,45.0,31.5,29.82,WSW,248,10.0,22.0,59,0.00,,,0.00,Weather View 32 v70,2013-01-31 15:25:00,
2013-01-31 10:30:00,45.0,31.5,29.82,West,270,5.0,22.0,59,0.00,,,0.00,Weather View 32 v70,2013-01-31 15:30:00,
2013-01-31 10:35:00,45.0,31.5,29.83,South,180,4.0,22.0,59,0.00,,,0.00,Weather View 32 v70,2013-01-31 15:35:00,
2013-01-31 10:40:00,46.0,32.9,29.83,South,180,11.0,22.0,60,0.00,,,0.00,Weather View 32 v70,2013-01-31 15:40:00,
2013-01-31 10:45:00,46.0,32.9,29.83,WSW,248,6.0,22.0,60,0.00,,,0.00,Weather View 32 v70,2013-01-31 15:45:00,
2013-01-31 10:50:00,46.0,32.5,29.83,WSW,248,12.0,22.0,59,0.00,,,0.00,Weather View 32 v70,2013-01-31 15:50:00,
2013-01-31 10:55:00,46.0,32.0,29.84,WSW,248,10.0,22.0,58,0.00,,,0.00,Weather View 32 v70,2013-01-31 15:55:00,
2013-01-31 11:00:00,46.0,31.6,29.83,West,270,8.0,22.0,57,0.00,,,0.00,Weather View 32 v70,2013-01-31 16:00:00,
2013-01-31 11:05:00,46.0,32.0,29.83,West,270,5.0,18.0,58,0.00,,,0.00,Weather View 32 v70,2013-01-31 16:05:00,
2013-01-31 11:10:00,46.0,32.0,29.83,WSW,248,9.0,18.0,58,0.00,,,0.00,Weather View 32 v70,2013-01-31 16:10:00,
2013-01-31 11:15:00,47.0,33.0,29.83,West,270,10.0,18.0,58,0.00,,,0.00,Weather View 32 v70,2013-01-31 16:15:00,
2013-01-31 11:20:00,47.0,33.0,29.83,WSW,248,8.0,18.0,58,0.00,,,0.00,Weather View 32 v70,2013-01-31 16:20:00,
2013-01-31 11:25:00,47.0,32.5,29.82,South,180,9.0,19.0,57,0.00,,,0.00,Weather View 32 v70,2013-01-31 16:25:00,
2013-01-31 11:30:00,47.0,31.6,29.82,West,270,5.0,21.0,55,0.00,,,0.00,Weather View 32 v70,2013-01-31 16:30:00,
2013-01-31 11:35:00,48.0,32.6,29.82,WSW,248,7.0,21.0,55,0.00,,,0.00,Weather View 32 v70,2013-01-31 16:35:00,
2013-01-31 11:40:00,48.0,32.6,29.82,South,180,14.0,21.0,55,0.00,,,0.00,Weather View 32 v70,2013-01-31 16:40:00,
2013-01-31 11:45:00,48.0,31.7,29.82,West,270,5.0,21.0,53,0.00,,,0.00,Weather View 32 v70,2013-01-31 16:45:00,
2013-01-31 11:50:00,48.0,32.6,29.82,West,270,5.0,21.0,55,0.00,,,0.00,Weather View 32 v70,2013-01-31 16:50:00,
2013-01-31 11:55:00,48.0,32.1,29.82,West,270,11.0,21.0,54,0.00,,,0.00,Weather View 32 v70,2013-01-31 16:55:00,
2013-01-31 12:00:00,48.0,31.7,29.82,WSW,248,5.0,21.0,53,0.00,,,0.00,Weather View 32 v70,2013-01-31 17:00:00,
2013-01-31 12:05:00,48.0,30.7,29.82,West,270,11.0,21.0,51,0.00,,,0.00,Weather View 32 v70,2013-01-31 17:05:00,
2013-01-31 12:10:00,48.0,30.2,29.82,West,270,13.0,21.0,50,0.00,,,0.00,Weather View 32 v70,2013-01-31 17:10:00,
2013-01-31 12:16:00,48.0,30.7,29.82,NNW,338,11.0,21.0,51,0.00,,,0.00,Weather View 32 v70,2013-01-31 17:16:00,
2013-01-31 12:21:00,48.0,30.7,29.82,South,180,6.0,21.0,51,0.00,,,0.00,Weather View 32 v70,2013-01-31 17:21:00,
2013-01-31 12:26:00,49.0,30.6,29.82,West,270,11.0,21.0,49,0.00,,,0.00,Weather View 32 v70,2013-01-31 17:26:00,
2013-01-31 12:31:00,48.0,28.7,29.82,NNW,338,6.0,23.0,47,0.00,,,0.00,Weather View 32 v70,2013-01-31 17:31:00,
2013-01-31 12:36:00,49.0,29.6,29.82,NNW,338,6.0,23.0,47,0.00,,,0.00,Weather View 32 v70,2013-01-31 17:36:00,
2013-01-31 12:41:00,49.0,29.6,29.82,West,270,9.0,23.0,47,0.00,,,0.00,Weather View 32 v70,2013-01-31 17:41:00,
2013-01-31 12:46:00,48.0,27.6,29.82,NNW,338,10.0,26.0,45,0.00,,,0.00,Weather View 32 v70,2013-01-31 17:46:00,
2013-01-31 12:51:00,48.0,28.7,29.82,West,270,12.0,26.0,47,0.00,,,0.00,Weather View 32 v70,2013-01-31 17:51:00,
2013-01-31 12:56:00,49.0,29.6,29.82,WSW,248,6.0,26.0,47,0.00,,,0.00,Weather View 32 v70,2013-01-31 17:56:00,
2013-01-31 13:01:00,49.0,29.1,29.82,West,270,12.0,26.0,46,0.00,,,0.00,Weather View 32 v70,2013-01-31 18:01:00,
2013-01-31 13:06:00,49.0,29.1,29.82,West,270,14.0,26.0,46,0.00,,,0.00,Weather View 32 v70,2013-01-31 18:06:00,
2013-01-31 13:11:00,49.0,29.1,29.82,WSW,248,15.0,26.0,46,0.00,,,0.00,Weather View 32 v70,2013-01-31 18:11:00,
2013-01-31 13:22:00,49.0,29.6,29.81,South,180,16.0,26.0,47,0.00,,,0.00,Weather View 32 v70,2013-01-31 18:22:00,
2013-01-31 13:27:00,49.0,29.6,29.82,West,270,8.0,26.0,47,0.00,,,0.00,Weather View 32 v70,2013-01-31 18:27:00,
2013-01-31 13:32:00,50.0,31.0,29.82,WSW,248,8.0,26.0,48,0.00,,,0.00,Weather View 32 v70,2013-01-31 18:32:00,
2013-01-31 13:37:00,49.0,28.5,29.81,West,270,13.0,26.0,45,0.00,,,0.00,Weather View 32 v70,2013-01-31 18:37:00,
2013-01-31 13:42:00,49.0,29.1,29.82,WSW,248,8.0,26.0,46,0.00,,,0.00,Weather View 32 v70,2013-01-31 18:42:00,
2013-01-31 13:47:00,49.0,29.6,29.82,West,270,14.0,23.0,47,0.00,,,0.00,Weather View 32 v70,2013-01-31 18:47:00,
2013-01-31 13:52:00,49.0,29.1,29.82,West,270,8.0,23.0,46,0.00,,,0.00,Weather View 32 v70,2013-01-31 18:52:00,
2013-01-31 13:57:00,49.0,29.1,29.82,WSW,248,11.0,24.0,46,0.00,,,0.00,Weather View 32 v70,2013-01-31 18:57:00,
2013-01-31 14:02:00,49.0,28.5,29.82,WSW,248,12.0,24.0,45,0.00,,,0.00,Weather View 32 v70,2013-01-31 19:02:00,
2013-01-31 14:07:00,49.0,29.1,29.81,West,270,5.0,24.0,46,0.00,,,0.00,Weather View 32 v70,2013-01-31 19:07:00,
2013-01-31 14:12:00,50.0,30.0,29.82,West,270,11.0,24.0,46,0.00,,,0.00,Weather View 32 v70,2013-01-31 19:12:00,
2013-01-31 14:17:00,49.0,28.5,29.82,WSW,248,5.0,24.0,45,0.00,,,0.00,Weather View 32 v70,2013-01-31 19:17:00,
2013-01-31 14:22:00,50.0,30.0,29.82,South,180,12.0,24.0,46,0.00,,,0.00,Weather View 32 v70,2013-01-31 19:22:00,
2013-01-31 14:27:00,50.0,30.0,29.82,South,180,8.0,24.0,46,0.00,,,0.00,Weather View 32 v70,2013-01-31 19:27:00,
2013-01-31 14:32:00,50.0,29.5,29.83,WSW,248,4.0,24.0,45,0.00,,,0.00,Weather View 32 v70,2013-01-31 19:32:00,
2013-01-31 14:37:00,50.0,30.0,29.82,South,180,14.0,24.0,46,0.00,,,0.00,Weather View 32 v70,2013-01-31 19:37:00,
2013-01-31 14:42:00,50.0,29.5,29.83,South,180,18.0,26.0,45,0.00,,,0.00,Weather View 32 v70,2013-01-31 19:42:00,
2013-01-31 14:47:00,50.0,29.5,29.83,WSW,248,6.0,26.0,45,0.00,,,0.00,Weather View 32 v70,2013-01-31 19:47:00,
2013-01-31 14:52:00,50.0,28.9,29.83,WSW,248,14.0,26.0,44,0.00,,,0.00,Weather View 32 v70,2013-01-31 19:52:00,
2013-01-31 14:57:00,50.0,29.5,29.83,WSW,248,13.0,26.0,45,0.00,,,0.00,Weather View 32 v70,2013-01-31 19:57:00,
2013-01-31 15:02:00,50.0,29.5,29.84,South,180,10.0,26.0,45,0.00,,,0.00,Weather View 32 v70,2013-01-31 20:02:00,
2013-01-31 15:07:00,50.0,30.0,29.84,South,180,15.0,26.0,46,0.00,,,0.00,Weather View 32 v70,2013-01-31 20:07:00,
2013-01-31 15:12:00,50.0,29.5,29.83,West,270,18.0,26.0,45,0.00,,,0.00,Weather View 32 v70,2013-01-31 20:12:00,
2013-01-31 15:17:00,50.0,29.5,29.84,West,270,6.0,26.0,45,0.00,,,0.00,Weather View 32 v70,2013-01-31 20:17:00,
2013-01-31 15:22:00,50.0,29.5,29.84,West,270,11.0,26.0,45,0.00,,,0.00,Weather View 32 v70,2013-01-31 20:22:00,
2013-01-31 15:27:00,50.0,28.9,29.84,South,180,6.0,26.0,44,0.00,,,0.00,Weather View 32 v70,2013-01-31 20:27:00,
2013-01-31 15:32:00,50.0,28.9,29.84,West,270,14.0,26.0,44,0.00,,,0.00,Weather View 32 v70,2013-01-31 20:32:00,
2013-01-31 15:37:00,50.0,28.9,29.84,WSW,248,8.0,26.0,44,0.00,,,0.00,Weather View 32 v70,2013-01-31 20:37:00,
2013-01-31 15:42:00,50.0,28.9,29.84,West,270,15.0,23.0,44,0.00,,,0.00,Weather View 32 v70,2013-01-31 20:42:00,
2013-01-31 15:47:00,50.0,28.9,29.84,South,180,11.0,23.0,44,0.00,,,0.00,Weather View 32 v70,2013-01-31 20:47:00,
2013-01-31 15:52:00,50.0,28.3,29.84,WSW,248,6.0,23.0,43,0.00,,,0.00,Weather View 32 v70,2013-01-31 20:52:00,
2013-01-31 15:57:00,50.0,28.3,29.84,South,180,10.0,24.0,43,0.00,,,0.00,Weather View 32 v70,2013-01-31 20:57:00,
2013-01-31 16:02:00,50.0,28.9,29.85,WSW,248,10.0,24.0,44,0.00,,,0.00,Weather View 32 v70,2013-01-31 21:02:00,
2013-01-31 16:07:00,50.0,28.3,29.85,WSW,248,12.0,24.0,43,0.00,,,0.00,Weather View 32 v70,2013-01-31 21:07:00,
2013-01-31 16:12:00,50.0,27.8,29.85,WSW,248,6.0,24.0,42,0.00,,,0.00,Weather View 32 v70,2013-01-31 21:12:00,
2013-01-31 16:17:00,50.0,28.3,29.85,West,270,13.0,24.0,43,0.00,,,0.00,Weather View 32 v70,2013-01-31 21:17:00,
2013-01-31 16:22:00,50.0,27.8,29.85,WSW,248,14.0,24.0,42,0.00,,,0.00,Weather View 32 v70,2013-01-31 21:22:00,
2013-01-31 16:27:00,50.0,28.3,29.85,WSW,248,16.0,24.0,43,0.00,,,0.00,Weather View 32 v70,2013-01-31 21:27:00,
2013-01-31 16:32:00,50.0,28.3,29.85,West,270,5.0,24.0,43,0.00,,,0.00,Weather View 32 v70,2013-01-31 21:32:00,
2013-01-31 16:37:00,50.0,28.3,29.85,West,270,6.0,24.0,43,0.00,,,0.00,Weather View 32 v70,2013-01-31 21:37:00,
2013-01-31 16:42:00,50.0,28.9,29.85,South,180,5.0,24.0,44,0.00,,,0.00,Weather View 32 v70,2013-01-31 21:42:00,
2013-01-31 16:47:00,50.0,28.3,29.85,South,180,6.0,24.0,43,0.00,,,0.00,Weather View 32 v70,2013-01-31 21:47:00,
2013-01-31 16:52:00,50.0,28.3,29.84,South,180,5.0,24.0,43,0.00,,,0.00,Weather View 32 v70,2013-01-31 21:52:00,
2013-01-31 16:57:00,50.0,27.8,29.85,NNW,338,8.0,22.0,42,0.00,,,0.00,Weather View 32 v70,2013-01-31 21:57:00,
2013-01-31 17:02:00,50.0,28.9,29.85,WSW,248,6.0,22.0,44,0.00,,,0.00,Weather View 32 v70,2013-01-31 22:02:00,
2013-01-31 17:07:00,50.0,28.3,29.85,NNW,338,6.0,22.0,43,0.00,,,0.00,Weather View 32 v70,2013-01-31 22:07:00,
2013-01-31 17:12:00,50.0,28.3,29.85,West,270,5.0,22.0,43,0.00,,,0.00,Weather View 32 v70,2013-01-31 22:12:00,
2013-01-31 17:17:00,50.0,27.8,29.85,West,270,7.0,22.0,42,0.00,,,0.00,Weather View 32 v70,2013-01-31 22:17:00,
2013-01-31 17:23:00,49.0,27.4,29.85,WSW,248,7.0,19.0,43,0.00,,,0.00,Weather View 32 v70,2013-01-31 22:23:00,
2013-01-31 17:28:00,49.0,26.9,29.86,NNW,338,6.0,19.0,42,0.00,,,0.00,Weather View 32 v70,2013-01-31 22:28:00,
2013-01-31 17:33:00,50.0,26.0,29.85,NNW,338,11.0,18.0,39,0.00,,,0.00,Weather View 32 v70,2013-01-31 22:33:00,
2013-01-31 17:38:00,49.0,25.1,29.85,NNW,338,7.0,18.0,39,0.00,,,0.00,Weather View 32 v70,2013-01-31 22:38:00,
2013-01-31 17:43:00,49.0,25.7,29.86,West,270,11.0,18.0,40,0.00,,,0.00,Weather View 32 v70,2013-01-31 22:43:00,
2013-01-31 17:48:00,49.0,26.3,29.86,NNW,338,3.0,18.0,41,0.00,,,0.00,Weather View 32 v70,2013-01-31 22:48:00,
2013-01-31 17:53:00,49.0,26.3,29.86,WSW,248,4.0,18.0,41,0.00,,,0.00,Weather View 32 v70,2013-01-31 22:53:00,
2013-01-31 17:58:00,49.0,26.3,29.86,West,270,6.0,18.0,41,0.00,,,0.00,Weather View 32 v70,2013-01-31 22:58:00,
2013-01-31 18:03:00,48.0,25.4,29.87,WSW,248,12.0,18.0,41,0.00,,,0.00,Weather View 32 v70,2013-01-31 23:03:00,
2013-01-31 18:08:00,48.0,22.9,29.87,NNW,338,19.0,21.0,37,0.00,,,0.00,Weather View 32 v70,2013-01-31 23:08:00,
2013-01-31 18:13:00,48.0,23.6,29.87,West,270,18.0,21.0,38,0.00,,,0.00,Weather View 32 v70,2013-01-31 23:13:00,
2013-01-31 18:18:00,48.0,23.6,29.87,West,270,8.0,21.0,38,0.00,,,0.00,Weather View 32 v70,2013-01-31 23:18:00,
2013-01-31 18:23:00,48.0,23.6,29.87,West,270,8.0,21.0,38,0.00,,,0.00,Weather View 32 v70,2013-01-31 23:23:00,
2013-01-31 18:28:00,48.0,23.6,29.87,WSW,248,4.0,21.0,38,0.00,,,0.00,Weather View 32 v70,2013-01-31 23:28:00,
2013-01-31 18:33:00,47.0,23.3,29.87,West,270,5.0,21.0,39,0.00,,,0.00,Weather View 32 v70,2013-01-31 23:33:00,
2013-01-31 18:38:00,47.0,23.3,29.88,NNW,338,5.0,21.0,39,0.00,,,0.00,Weather View 32 v70,2013-01-31 23:38:00,
2013-01-31 18:43:00,47.0,23.9,29.88,WSW,248,5.0,21.0,40,0.00,,,0.00,Weather View 32 v70,2013-01-31 23:43:00,
2013-01-31 18:48:00,46.0,23.6,29.88,NNW,338,4.0,21.0,41,0.00,,,0.00,Weather View 32 v70,2013-01-31 23:48:00,
2013-01-31 18:53:00,46.0,23.6,29.88,West,270,3.0,21.0,41,0.00,,,0.00,Weather View 32 v70,2013-01-31 23:53:00,
2013-01-31 18:58:00,46.0,24.7,29.88,NNW,338,5.0,21.0,43,0.00,,,0.00,Weather View 32 v70,2013-01-31 23:58:00,
2013-01-31 19:03:00,46.0,24.2,29.88,WSW,248,3.0,21.0,42,0.00,,,0.00,Weather View 32 v70,2013-02-01 00:03:00,
2013-01-31 19:08:00,45.0,23.8,29.89,WSW,248,3.0,20.0,43,0.00,,,0.00,Weather View 32 v70,2013-02-01 00:08:00,
2013-01-31 19:13:00,45.0,24.9,29.89,West,270,6.0,18.0,45,0.00,,,0.00,Weather View 32 v70,2013-02-01 00:13:00,
2013-01-31 19:18:00,45.0,23.8,29.89,West,270,4.0,17.0,43,0.00,,,0.00,Weather View 32 v70,2013-02-01 00:18:00,
2013-01-31 19:23:00,45.0,24.9,29.89,West,270,5.0,17.0,45,0.00,,,0.00,Weather View 32 v70,2013-02-01 00:23:00,
2013-01-31 19:28:00,45.0,24.9,29.89,WSW,248,6.0,17.0,45,0.00,,,0.00,Weather View 32 v70,2013-02-01 00:28:00,
2013-01-31 19:33:00,44.0,24.0,29.89,WSW,248,3.0,11.0,45,0.00,,,0.00,Weather View 32 v70,2013-02-01 00:33:00,
2013-01-31 19:38:00,44.0,24.5,29.89,South,180,3.0,11.0,46,0.00,,,0.00,Weather View 32 v70,2013-02-01 00:38:00,
2013-01-31 19:43:00,44.0,24.5,29.89,South,180,5.0,10.0,46,0.00,,,0.00,Weather View 32 v70,2013-02-01 00:43:00,
2013-01-31 19:48:00,44.0,25.0,29.89,West,270,5.0,10.0,47,0.00,,,0.00,Weather View 32 v70,2013-02-01 00:48:00,
2013-01-31 19:53:00,44.0,25.0,29.89,West,270,3.0,10.0,47,0.00,,,0.00,Weather View 32 v70,2013-02-01 00:53:00,
2013-01-31 19:58:00,43.0,24.1,29.90,WSW,248,6.0,8.0,47,0.01,,,0.00,Weather View 32 v70,2013-02-01 00:58:00,
2013-01-31 20:03:00,43.0,25.6,29.90,South,180,2.0,8.0,50,0.00,,,0.00,Weather View 32 v70,2013-02-01 01:03:00,
2013-01-31 20:08:00,43.0,25.6,29.90,West,270,3.0,8.0,50,0.00,,,0.00,Weather View 32 v70,2013-02-01 01:08:00,
2013-01-31 20:14:00,42.0,24.7,29.90,WSW,248,3.0,8.0,50,0.00,,,0.00,Weather View 32 v70,2013-02-01 01:14:00,
2013-01-31 20:19:00,42.0,25.2,29.90,South,180,2.0,8.0,51,0.00,,,0.00,Weather View 32 v70,2013-02-01 01:19:00,
2013-01-31 20:24:00,42.0,25.2,29.90,South,180,5.0,8.0,51,0.00,,,0.00,Weather View 32 v70,2013-02-01 01:24:00,
2013-01-31 20:29:00,41.0,24.2,29.90,South,180,3.0,8.0,51,0.00,,,0.00,Weather View 32 v70,2013-02-01 01:29:00,
2013-01-31 20:34:00,41.0,25.2,29.90,WSW,248,5.0,8.0,53,0.00,,,0.00,Weather View 32 v70,2013-02-01 01:34:00,
2013-01-31 20:39:00,41.0,25.2,29.90,WSW,248,3.0,8.0,53,0.00,,,0.00,Weather View 32 v70,2013-02-01 01:39:00,
2013-01-31 20:44:00,41.0,25.6,29.90,South,180,5.0,7.0,54,0.00,,,0.00,Weather View 32 v70,2013-02-01 01:44:00,
2013-01-31 20:49:00,41.0,26.0,29.90,WSW,248,3.0,7.0,55,0.00,,,0.00,Weather View 32 v70,2013-02-01 01:49:00,
2013-01-31 20:54:00,40.0,25.5,29.89,South,180,3.0,7.0,56,0.00,,,0.00,Weather View 32 v70,2013-02-01 01:54:00,
2013-01-31 20:59:00,40.0,25.5,29.89,South,180,5.0,7.0,56,0.00,,,0.00,Weather View 32 v70,2013-02-01 01:59:00,
2013-01-31 21:04:00,40.0,25.5,29.89,South,180,4.0,7.0,56,0.00,,,0.00,Weather View 32 v70,2013-02-01 02:04:00,
2013-01-31 21:09:00,40.0,26.0,29.89,WSW,248,3.0,7.0,57,0.00,,,0.00,Weather View 32 v70,2013-02-01 02:09:00,
2013-01-31 21:14:00,40.0,26.4,29.89,WSW,248,5.0,8.0,58,0.00,,,0.00,Weather View 32 v70,2013-02-01 02:14:00,
2013-01-31 21:19:00,40.0,26.8,29.90,South,180,5.0,9.0,59,0.00,,,0.00,Weather View 32 v70,2013-02-01 02:19:00,
2013-01-31 21:24:00,40.0,26.8,29.89,South,180,3.0,9.0,59,0.00,,,0.00,Weather View 32 v70,2013-02-01 02:24:00,
2013-01-31 21:29:00,40.0,26.8,29.89,WSW,248,6.0,10.0,59,0.00,,,0.00,Weather View 32 v70,2013-02-01 02:29:00,
2013-01-31 21:34:00,40.0,27.2,29.89,South,180,3.0,11.0,60,0.00,,,0.00,Weather View 32 v70,2013-02-01 02:34:00,
2013-01-31 21:39:00,40.0,27.2,29.90,East,90,6.0,11.0,60,0.00,,,0.00,Weather View 32 v70,2013-02-01 02:39:00,
2013-01-31 21:44:00,41.0,28.6,29.90,South,180,6.0,11.0,61,0.00,,,0.00,Weather View 32 v70,2013-02-01 02:44:00,
2013-01-31 21:49:00,41.0,28.2,29.90,South,180,8.0,11.0,60,0.00,,,0.00,Weather View 32 v70,2013-02-01 02:49:00,
2013-01-31 21:54:00,41.0,28.2,29.91,WSW,248,8.0,14.0,60,0.00,,,0.00,Weather View 32 v70,2013-02-01 02:54:00,
2013-01-31 21:59:00,41.0,28.2,29.91,South,180,6.0,14.0,60,0.00,,,0.00,Weather View 32 v70,2013-02-01 02:59:00,
2013-01-31 22:04:00,41.0,28.2,29.91,WSW,248,4.0,14.0,60,0.00,,,0.00,Weather View 32 v70,2013-02-01 03:04:00,
2013-01-31 22:09:00,41.0,28.2,29.91,WSW,248,8.0,14.0,60,0.00,,,0.00,Weather View 32 v70,2013-02-01 03:09:00,
2013-01-31 22:14:00,40.0,27.2,29.91,South,180,8.0,14.0,60,0.00,,,0.00,Weather View 32 v70,2013-02-01 03:14:00,
2013-01-31 22:19:00,40.0,27.2,29.91,South,180,5.0,14.0,60,0.00,,,0.00,Weather View 32 v70,2013-02-01 03:19:00,
2013-01-31 22:24:00,40.0,26.8,29.92,East,90,1.0,14.0,59,0.00,,,0.00,Weather View 32 v70,2013-02-01 03:24:00,
2013-01-31 22:29:00,40.0,27.2,29.91,WSW,248,3.0,14.0,60,0.00,,,0.00,Weather View 32 v70,2013-02-01 03:29:00,
2013-01-31 22:34:00,40.0,27.2,29.91,South,180,5.0,14.0,60,0.00,,,0.00,Weather View 32 v70,2013-02-01 03:34:00,
2013-01-31 22:39:00,40.0,27.2,29.92,WSW,248,8.0,14.0,60,0.00,,,0.00,Weather View 32 v70,2013-02-01 03:39:00,
2013-01-31 22:44:00,41.0,28.2,29.92,WSW,248,10.0,14.0,60,0.00,,,0.00,Weather View 32 v70,2013-02-01 03:44:00,
2013-01-31 22:49:00,41.0,28.2,29.92,WSW,248,7.0,14.0,60,0.00,,,0.00,Weather View 32 v70,2013-02-01 03:49:00,
2013-01-31 22:54:00,40.0,26.8,29.91,South,180,7.0,14.0,59,0.00,,,0.00,Weather View 32 v70,2013-02-01 03:54:00,
2013-01-31 22:59:00,41.0,28.2,29.91,East,90,1.0,14.0,60,0.00,,,0.00,Weather View 32 v70,2013-02-01 03:59:00,
2013-01-31 23:04:00,41.0,27.8,29.92,South,180,6.0,16.0,59,0.00,,,0.00,Weather View 32 v70,2013-02-01 04:04:00,
2013-01-31 23:09:00,41.0,28.2,29.92,WSW,248,5.0,16.0,60,0.00,,,0.00,Weather View 32 v70,2013-02-01 04:09:00,
2013-01-31 23:15:00,40.0,27.2,29.92,South,180,5.0,16.0,60,0.00,,,0.00,Weather View 32 v70,2013-02-01 04:15:00,
2013-01-31 23:20:00,40.0,27.2,29.92,South,180,8.0,16.0,60,0.00,,,0.00,Weather View 32 v70,2013-02-01 04:20:00,
2013-01-31 23:25:00,40.0,27.6,29.92,South,180,11.0,16.0,61,0.00,,,0.00,Weather View 32 v70,2013-02-01 04:25:00,
2013-01-31 23:30:00,40.0,27.6,29.92,WSW,248,6.0,16.0,61,0.00,,,0.00,Weather View 32 v70,2013-02-01 04:30:00,
2013-01-31 23:35:00,40.0,27.6,29.92,South,180,8.0,16.0,61,0.00,,,0.00,Weather View 32 v70,2013-02-01 04:35:00,
2013-01-31 23:40:00,41.0,28.2,29.92,South,180,8.0,16.0,60,0.00,,,0.00,Weather View 32 v70,2013-02-01 04:40:00,
2013-01-31 23:45:00,41.0,28.2,29.92,WSW,248,10.0,16.0,60,0.00,,,0.00,Weather View 32 v70,2013-02-01 04:45:00,
2013-01-31 23:50:00,41.0,28.2,29.92,South,180,4.0,16.0,60,0.00,,,0.00,Weather View 32 v70,2013-02-01 04:50:00,
2013-01-31 23:55:00,41.0,28.2,29.92,WSW,248,6.0,18.0,60,0.00,,,0.00,Weather View 32 v70,2013-02-01 04:55:00,